Weather History for KMMV - February, 2014

Change the Weather History Date:

Saturday, February 22, 2014

  Actual Average Record
Temperature  
Mean Temperature 42 °F 43 °F  
Max Temperature 51 °F 52 °F 66 °F (1958)
Min Temperature 32 °F 35 °F 23 °F (1920)
Degree Days  
Heating Degree Days 23 22  
Month to date heating degree days 541 498  
Since 1 July heating degree days 3312 3253  
Cooling Degree Days 0 0  
Month to date cooling degree days 0 0  
Year to date cooling degree days 0 0  
Moisture  
Dew Point 34 °F    
Average Humidity 78    
Maximum Humidity 100    
Minimum Humidity 56    
Precipitation  
Precipitation 0.00 in 0.13 in 1.11 in (1949)
Month to date precipitation 5.03 3.50  
Year to date precipitation 7.72 9.60  
Sea Level Pressure  
Sea Level Pressure 30.18 in    
Wind  
Wind Speed 3 mph (NNE)    
Max Wind Speed 10 mph    
Max Gust Speed 12 mph    
Visibility 10 miles    
Events      
T = Trace of Precipitation, MM = Missing Value Source: NWS Daily Summary

Daily Weather History Graph

Daily Weather History Graph

Search for Another Location

Airport or City:

Trip Planner

Search our weather history database for the weather conditions in past years. The results will help you decide how hot, cold, wet, or windy it might be!

Date:

Astronomy

Feb. 22, 2014 Rise Set
Actual Time 7:02 AM PST 5:50 PM PST
Civil Twilight 6:32 AM PST 6:20 PM PST
Nautical Twilight 5:58 AM PST 6:54 PM PST
Astronomical Twilight 5:24 AM PST 7:28 PM PST
Moon 1:10 AM PST (2/22) 10:58 AM PST (2/22)
Length of Visible Light 11h 47m
Length of Day
10h 47m
Waning Gibbous, 49% of the Moon is Illuminated
Feb 22
Waning Gibbous
Mar 1
New
Mar 8
First Quarter
Mar 16
Full
Mar 23
Last Quarter

Hourly Weather History & Observations

Time (PST) Temp. Windchill Dew Point Humidity Pressure Visibility Wind Dir Wind Speed Gust Speed Precip Events Conditions
12:53 AM 35.1 °F - 34.0 °F 96% 30.26 in 10.0 mi Calm Calm - N/A   Clear
1:26 AM 35.1 °F - 35.1 °F 100% 30.25 in 10.0 mi Calm Calm - N/A   Overcast
1:53 AM 35.1 °F - 35.1 °F 100% 30.26 in 10.0 mi Calm Calm - N/A   Overcast
2:53 AM 37.9 °F 33.5 °F 36.0 °F 93% 30.25 in 10.0 mi North 5.8 mph - N/A   Overcast
4:53 AM 36.0 °F 32.1 °F 34.0 °F 93% 30.25 in 10.0 mi North 4.6 mph - N/A   Mostly Cloudy
5:00 AM 36.0 °F 33.3 °F 34.0 °F 93% 30.24 in 10.0 mi NNW 3.5 mph - N/A   Scattered Clouds
5:53 AM 34.0 °F - 33.1 °F 96% 30.24 in 10.0 mi Calm Calm - N/A   Clear
7:53 AM 35.1 °F 32.2 °F 33.1 °F 92% 30.24 in 10.0 mi North 3.5 mph - N/A   Clear
8:53 AM 37.9 °F - 37.0 °F 97% 30.24 in 10.0 mi Calm Calm - N/A   Clear
9:53 AM 41.0 °F - 35.1 °F 79% 30.23 in 10.0 mi Calm Calm - N/A   Clear
10:53 AM 44.1 °F 42.5 °F 34.0 °F 68% 30.22 in 10.0 mi ESE 3.5 mph - N/A   Clear
11:53 AM 45.0 °F - 33.1 °F 63% 30.21 in 10.0 mi Calm Calm - N/A   Clear
12:53 PM 46.9 °F - 33.1 °F 59% 30.18 in 10.0 mi Calm Calm - N/A   Clear
1:53 PM 48.0 °F - 34.0 °F 58% 30.16 in 10.0 mi Calm Calm - N/A   Overcast
2:53 PM 48.9 °F - 35.1 °F 59% 30.15 in 10.0 mi Variable 3.5 mph - N/A   Scattered Clouds
3:53 PM 50.0 °F - 37.0 °F 61% 30.13 in 10.0 mi East 8.1 mph - N/A   Clear
4:53 PM 48.9 °F - 35.1 °F 59% 30.12 in 10.0 mi East 6.9 mph - N/A   Clear
5:53 PM 46.0 °F 42.5 °F 35.1 °F 66% 30.11 in 10.0 mi East 6.9 mph - N/A   Mostly Cloudy
6:53 PM 44.1 °F 40.8 °F 33.1 °F 65% 30.10 in 10.0 mi ENE 5.8 mph - N/A   Mostly Cloudy
7:53 PM 43.0 °F - 32.0 °F 65% 30.09 in 10.0 mi Calm Calm - N/A   Scattered Clouds
8:53 PM 37.0 °F 33.3 °F 33.1 °F 86% 30.09 in 10.0 mi NW 4.6 mph - N/A   Clear
9:53 PM 37.0 °F - 34.0 °F 89% 30.09 in 10.0 mi Calm Calm - N/A   Clear
10:53 PM 35.1 °F 32.2 °F 33.1 °F 92% 30.08 in 10.0 mi West 3.5 mph - N/A   Clear
11:53 PM 37.0 °F 33.3 °F 34.0 °F 89% 30.08 in 10.0 mi NW 4.6 mph - N/A   Clear